ProjectID,Date,Electric Generation,Electric Utility Import,Facility Electric Load
,YYYY-MM-DD,kW,kW,kW
371,2016-08-01,0.0,0.0,0.0
371,2016-08-02,0.0,0.0,0.0
371,2016-08-03,0.0,0.0,0.0
371,2016-08-04,0.0,0.0,0.0
371,2016-08-05,0.0,0.0,0.0
371,2016-08-06,0.0,0.0,0.0
371,2016-08-07,0.0,0.0,0.0
371,2016-08-08,0.0,0.0,0.0
371,2016-08-09,0.0,0.0,0.0
371,2016-08-10,0.0,0.0,0.0
371,2016-08-11,0.0,0.0,0.0
371,2016-08-12,0.0,0.0,0.0
371,2016-08-13,0.0,0.0,0.0
371,2016-08-14,0.0,0.0,0.0
371,2016-08-15,0.0,0.0,0.0
371,2016-08-16,0.0,0.0,0.0
371,2016-08-17,0.0,0.0,0.0
371,2016-08-18,0.0,0.0,0.0
371,2016-08-19,44.66495833333334,148.01454166666667,192.67950000000002
371,2016-08-20,41.75966666666667,159.38666666666668,201.14633333333336
371,2016-08-21,42.62141666666666,144.93433333333334,187.55575
371,2016-08-22,50.34341666666666,145.06008333333332,195.40349999999998
371,2016-08-23,23.229166666666668,148.42920833333332,171.65837499999998
371,2016-08-24,37.827999999999996,148.48295833333333,186.31095833333333
371,2016-08-25,50.406124999999996,147.73258333333334,198.13870833333334
371,2016-08-26,47.924708333333335,170.33354166666666,218.25825
371,2016-08-27,45.298541666666665,146.33783333333335,191.63637500000002
371,2016-08-28,44.756375,144.105,188.86137499999998
371,2016-08-29,54.567083333333336,169.94729166666667,224.514375
371,2016-08-30,51.24283333333332,154.26304166666668,205.505875
371,2016-08-31,50.68691666666666,165.89325,216.58016666666666
371,2016-09-01,49.562375,141.61175,191.174125
371,2016-09-02,49.01158333333334,114.91641666666668,163.92800000000003
371,2016-09-03,44.716499999999996,92.185875,136.902375
371,2016-09-04,45.90983333333333,91.11975,137.02958333333333
371,2016-09-05,53.97466666666667,99.55470833333334,153.52937500000002
371,2016-09-06,58.61995833333333,133.955,192.57495833333334
371,2016-09-07,59.669624999999996,152.38904166666666,212.05866666666665
371,2016-09-08,59.58787499999999,169.90704166666666,229.49491666666665
371,2016-09-09,56.30758333333333,195.23270833333333,251.54029166666666
371,2016-09-10,52.49187499999999,191.0644583333333,243.5563333333333
371,2016-09-11,3.094125,197.66475,200.758875
371,2016-09-12,0.0,184.99416666666664,184.99416666666664
371,2016-09-13,0.0,180.20141666666666,180.20141666666666
371,2016-09-14,0.0,192.03195833333334,192.03195833333334
371,2016-09-15,0.0,161.90175,161.90175
371,2016-09-16,0.0,147.92820833333334,147.92820833333334
371,2016-09-17,0.0,129.66358333333332,129.66358333333332
371,2016-09-18,0.0,154.10133333333332,154.10133333333332
371,2016-09-19,4.003291666666667,181.08966666666666,185.0929583333333
371,2016-09-20,6.4735000000000005,154.874875,161.348375
371,2016-09-21,0.0,181.71308333333332,181.71308333333332
371,2016-09-22,0.0,188.08091666666667,188.08091666666667
371,2016-09-23,0.0,188.8605,188.8605
371,2016-09-24,0.0,139.07104166666667,139.07104166666667
371,2016-09-25,0.0,130.71616666666668,130.71616666666668
371,2016-09-26,0.0,142.19424999999998,142.19424999999998
371,2016-09-27,29.570249999999998,129.11591666666666,158.68616666666665
371,2016-09-28,48.311375,110.85374999999999,159.165125
371,2016-09-29,55.32641666666668,90.80845833333332,146.134875
371,2016-09-30,39.24645833333333,94.214875,133.46133333333333
371,2016-10-01,6.370666666666668,98.81220833333333,105.182875
371,2016-10-02,0.0,105.87658333333333,105.87658333333333
371,2016-10-03,38.74766666666667,109.00020833333333,147.747875
371,2016-10-04,46.13141666666667,93.95216666666666,140.0835833333333
371,2016-10-05,52.05241666666668,91.008875,143.06129166666668
371,2016-10-06,50.610583333333324,96.58570833333333,147.19629166666664
371,2016-10-07,57.649750000000004,89.64366666666666,147.29341666666667
371,2016-10-08,27.313416666666665,87.32045833333332,114.63387499999999
371,2016-10-09,0.0,96.57529166666666,96.57529166666666
371,2016-10-10,35.69679166666668,82.08204166666667,117.77883333333335
371,2016-10-11,59.08358333333334,80.397,139.48058333333336
371,2016-10-12,57.56924999999999,82.410875,139.980125
371,2016-10-13,61.78904166666667,77.80433333333333,139.593375
371,2016-10-14,63.168124999999996,74.73054166666667,137.89866666666666
371,2016-10-15,61.570125,70.54329166666666,132.11341666666667
371,2016-10-16,60.74945833333334,62.99316666666667,123.742625
371,2016-10-17,63.258833333333335,101.47004166666666,164.728875
371,2016-10-18,62.83779166666667,119.12566666666667,181.96345833333334
371,2016-10-19,61.25866666666667,131.20695833333335,192.46562500000002
371,2016-10-20,61.807625,107.16195833333335,168.96958333333333
371,2016-10-21,62.83154166666667,105.30429166666666,168.13583333333332
371,2016-10-22,60.980250000000005,71.04704166666666,132.02729166666666
371,2016-10-23,60.380625,70.971,131.351625
371,2016-10-24,61.690583333333336,82.29004166666667,143.980625
371,2016-10-25,61.825708333333345,81.902625,143.72833333333335
371,2016-10-26,61.42895833333333,85.925,147.3539583333333
371,2016-10-27,15.946374999999998,115.54941666666667,131.49579166666666
371,2016-10-28,37.436083333333336,92.11358333333334,129.54966666666667
371,2016-10-29,59.858458333333324,66.88725000000001,126.74570833333334
371,2016-10-30,59.31245833333333,79.72737500000001,139.03983333333335
371,2016-10-31,7.006291666666667,123.50654166666668,130.51283333333333
371,2016-11-01,0.0,126.498875,126.498875
371,2016-11-02,0.0,129.45558333333335,129.45558333333335
371,2016-11-03,34.33408333333333,106.18316666666668,140.51725000000002
371,2016-11-04,63.015625,78.52283333333334,141.53845833333332
371,2016-11-05,61.667083333333345,69.65904166666667,131.32612500000002
371,2016-11-06,59.941624999999995,65.52929166666667,125.47091666666665
371,2016-11-07,62.078999999999986,87.25133333333333,149.33033333333333
371,2016-11-08,61.13687499999998,95.92491666666666,157.06179166666664
371,2016-11-09,63.043583333333316,86.43454166666668,149.47812499999998
371,2016-11-10,56.56733333333335,88.88525,145.45258333333334
371,2016-11-11,61.60037499999999,86.059375,147.65975
371,2016-11-12,60.170708333333316,77.80904166666666,137.97974999999997
371,2016-11-13,59.76070833333335,81.686125,141.44683333333336
371,2016-11-14,61.0255,84.38945833333334,145.41495833333335
371,2016-11-15,57.96679166666669,95.65345833333333,153.62025000000003
371,2016-11-16,60.050333333333334,94.72754166666665,154.777875
371,2016-11-17,62.358250000000005,88.57475,150.933
371,2016-11-18,61.21095833333334,93.98258333333332,155.19354166666665
371,2016-11-19,61.894749999999995,77.42820833333333,139.32295833333333
371,2016-11-20,60.00095833333332,73.66870833333333,133.66966666666664
371,2016-11-21,62.138125,88.14208333333333,150.28020833333335
371,2016-11-22,44.652625,102.81116666666667,147.46379166666668
371,2016-11-23,62.40487499999998,95.842,158.246875
371,2016-11-24,62.45641666666668,88.93720833333333,151.39362500000001
371,2016-11-25,61.49108333333334,73.10383333333333,134.59491666666668
371,2016-11-26,60.08591666666667,67.31308333333332,127.399
371,2016-11-27,60.17120833333333,77.34533333333333,137.51654166666665
371,2016-11-28,61.453833333333336,94.73424999999999,156.18808333333334
371,2016-11-29,44.76841666666667,101.59937500000001,146.36779166666668
371,2016-11-30,53.59733333333333,90.8895,144.48683333333332
371,2016-12-01,65.30770833333332,83.03841666666666,148.34612499999997
371,2016-12-02,65.11416666666666,79.800125,144.91429166666666
371,2016-12-03,65.13700000000001,74.97954166666666,140.11654166666668
371,2016-12-04,64.86158333333333,85.47770833333334,150.33929166666667
371,2016-12-05,65.25020833333333,93.08283333333333,158.33304166666665
371,2016-12-06,65.28237500000002,90.88612499999999,156.1685
371,2016-12-07,65.47270833333333,92.75058333333334,158.22329166666668
371,2016-12-08,65.28420833333335,89.4705,154.75470833333335
371,2016-12-09,62.804333333333346,99.66195833333335,162.46629166666668
371,2016-12-10,2.7419166666666666,95.38137499999999,98.12329166666666
371,2016-12-11,62.57625000000001,85.56520833333333,148.14145833333333
371,2016-12-12,63.504749999999994,73.94920833333333,137.45395833333333
371,2016-12-13,65.50295833333334,90.85291666666666,156.355875
371,2016-12-14,24.45870833333333,122.76779166666667,147.2265
371,2016-12-15,29.00191666666667,122.85641666666668,151.85833333333335
371,2016-12-16,66.25754166666665,93.25420833333334,159.51175
371,2016-12-17,66.12445833333334,82.902625,149.02708333333334
371,2016-12-18,66.064125,71.33725,137.401375
371,2016-12-19,66.19320833333335,90.742,156.93520833333335
371,2016-12-20,66.19408333333334,91.02941666666668,157.2235
371,2016-12-21,66.07058333333332,83.22058333333334,149.29116666666664
371,2016-12-22,65.99920833333333,75.80066666666666,141.799875
371,2016-12-23,66.03458333333333,75.26587500000001,141.30045833333332
371,2016-12-24,65.98162500000001,72.47375,138.455375
371,2016-12-25,65.1185,68.68629166666666,133.80479166666666
371,2016-12-26,66.05491666666667,68.59566666666667,134.65058333333334
371,2016-12-27,64.80591666666666,71.58745833333333,136.393375
371,2016-12-28,65.78870833333333,72.17275,137.96145833333333
371,2016-12-29,65.80295833333334,74.33958333333334,140.14254166666666
371,2016-12-30,65.40920833333334,67.81879166666667,133.228
371,2016-12-31,61.14629166666668,72.54483333333333,133.691125
371,2017-01-01,65.96570833333334,70.36566666666667,136.331375
371,2017-01-02,65.07608333333333,74.91025,139.98633333333333
371,2017-01-03,65.76079166666666,85.859,151.61979166666666
371,2017-01-04,65.70858333333335,81.73075,147.43933333333337
371,2017-01-05,65.76108333333335,86.288125,152.04920833333335
371,2017-01-06,65.98479166666668,89.11425000000001,155.0990416666667
371,2017-01-07,65.99049999999998,82.23958333333333,148.2300833333333
371,2017-01-08,66.127375,84.76770833333333,150.89508333333333
371,2017-01-09,66.29333333333334,100.04700000000001,166.34033333333335
371,2017-01-10,66.196875,95.47025000000001,161.667125
371,2017-01-11,64.21283333333334,92.03583333333334,156.24866666666668
371,2017-01-12,66.17533333333334,86.62925,152.80458333333334
371,2017-01-13,66.19375000000002,83.292625,149.486375
371,2017-01-14,65.73141666666668,76.117125,141.84854166666668
371,2017-01-15,65.58387499999999,74.77550000000001,140.359375
371,2017-01-16,65.63891666666667,86.44020833333333,152.079125
371,2017-01-17,65.799875,98.20108333333333,164.00095833333333
371,2017-01-18,66.05629166666667,97.121375,163.17766666666665
371,2017-01-19,66.17641666666665,88.689375,154.86579166666667
371,2017-01-20,63.90362500000001,92.738625,156.64225000000002
371,2017-01-21,0.0,119.57666666666667,119.57666666666667
371,2017-01-22,0.0,124.16495833333333,124.16495833333333
371,2017-01-23,0.0,138.583,138.583
371,2017-01-24,0.0,136.00066666666666,136.00066666666666
371,2017-01-25,0.0,137.08491666666666,137.08491666666666
371,2017-01-26,0.0,138.23925,138.23925
371,2017-01-27,32.388333333333335,118.95037500000001,151.33870833333333
371,2017-01-28,65.62658333333333,80.27925,145.90583333333333
371,2017-01-29,65.30095833333333,79.02379166666667,144.32475
371,2017-01-30,65.17241666666666,92.56295833333333,157.73537499999998
371,2017-01-31,65.30191666666666,100.33745833333334,165.639375
371,2017-02-01,66.07308333333334,90.32516666666668,156.39825000000002
371,2017-02-02,64.940375,93.53362499999999,158.474
371,2017-02-03,66.31641666666667,91.24866666666667,157.56508333333335
371,2017-02-04,65.24604166666664,82.44329166666667,147.6893333333333
371,2017-02-05,65.01183333333333,83.060125,148.07195833333333
371,2017-02-06,65.77066666666666,94.15137499999999,159.92204166666664
371,2017-02-07,65.607625,89.59929166666666,155.20691666666664
371,2017-02-08,21.243750000000002,123.09704166666667,144.34079166666666
371,2017-02-09,13.168041666666667,129.61141666666666,142.7794583333333
371,2017-02-10,0.0,123.67558333333334,123.67558333333334
371,2017-02-11,0.0,126.68583333333333,126.68583333333333
371,2017-02-12,0.0,166.65091666666666,166.65091666666666
371,2017-02-13,16.191791666666667,157.115875,173.30766666666665
371,2017-02-14,39.76741666666666,108.580125,148.34754166666664
371,2017-02-15,41.99679166666667,109.78762499999999,151.78441666666666
371,2017-02-16,41.98608333333333,107.19729166666667,149.183375
371,2017-02-17,41.980999999999995,100.55762499999999,142.53862499999997
371,2017-02-18,41.982166666666664,85.286,127.26816666666667
371,2017-02-19,41.98616666666666,77.86683333333333,119.853
371,2017-02-20,41.98795833333333,84.688375,126.67633333333333
371,2017-02-21,41.97816666666667,100.31383333333333,142.292
371,2017-02-22,41.98170833333333,93.63179166666667,135.6135
371,2017-02-23,41.98941666666667,99.30687499999999,141.29629166666666
371,2017-02-24,41.992333333333335,97.914625,139.90695833333334
371,2017-02-25,41.98416666666666,85.36016666666666,127.34433333333331
371,2017-02-26,41.98995833333333,92.58041666666666,134.57037499999998
371,2017-02-27,41.95375,108.96329166666668,150.91704166666668
371,2017-02-28,41.98291666666666,108.27058333333333,150.2535
371,2017-03-01,39.22379166666666,104.24816666666668,143.47195833333333
371,2017-03-02,42.02462500000001,94.50779166666666,136.53241666666668
371,2017-03-03,42.00662500000001,96.56829166666667,138.57491666666667
371,2017-03-04,41.99575000000001,91.17866666666667,133.17441666666667
371,2017-03-05,41.991083333333336,94.17983333333332,136.17091666666664
371,2017-03-06,41.99195833333333,103.280625,145.27258333333333
371,2017-03-07,42.002291666666665,99.05404166666666,141.05633333333333
371,2017-03-08,41.99883333333333,101.04954166666666,143.048375
371,2017-03-09,41.99466666666667,98.09366666666666,140.08833333333334
371,2017-03-10,41.97862500000001,98.00325,139.981875
371,2017-03-11,41.96875000000001,94.988375,136.95712500000002
371,2017-03-12,39.79708333333334,93.98304166666667,133.780125
371,2017-03-13,41.974666666666664,107.96929166666666,149.94395833333334
371,2017-03-14,1.7486666666666668,3.8430416666666667,5.591708333333333
371,2017-03-15,40.21416666666667,113.23341666666666,153.44758333333334
371,2017-03-16,41.99208333333333,107.01704166666667,149.009125
371,2017-03-17,41.98504166666666,106.06054166666667,148.04558333333333
371,2017-03-18,41.983916666666666,91.48558333333334,133.4695
371,2017-03-19,41.978833333333334,92.93391666666668,134.91275000000002
371,2017-03-20,41.98995833333333,108.79066666666667,150.780625
371,2017-03-21,41.98433333333334,108.69275,150.67708333333334
371,2017-03-22,25.064750000000004,117.02716666666667,142.0919166666667
371,2017-03-23,0.911,131.24895833333332,132.15995833333332
371,2017-03-24,0.8620416666666667,125.41354166666667,126.27558333333334
371,2017-03-25,0.0,116.414875,116.414875
371,2017-03-26,0.5337916666666667,117.13099999999999,117.66479166666666
371,2017-03-27,17.170083333333334,120.27079166666665,137.44087499999998
371,2017-03-28,56.59383333333333,91.40608333333334,147.99991666666668
371,2017-03-29,56.54387500000001,99.25895833333334,155.80283333333335
371,2017-03-30,56.77699999999999,94.718,151.495
371,2017-03-31,56.650291666666675,98.18004166666667,154.83033333333333
371,2017-04-01,56.75287500000001,83.640625,140.39350000000002
371,2017-04-02,56.596,89.36741666666667,145.96341666666666
371,2017-04-03,56.89749999999999,94.654875,151.55237499999998
371,2017-04-04,56.58929166666667,94.260375,150.84966666666668
371,2017-04-05,56.88995833333334,84.92145833333333,141.81141666666667
371,2017-04-06,56.742375,86.20224999999999,142.944625
371,2017-04-07,56.88304166666666,85.297375,142.18041666666664
371,2017-04-08,2.369875,97.497,99.866875
371,2017-04-09,0.0,97.497,97.497
371,2017-04-10,0.0,141.21533333333335,141.21533333333335
371,2017-04-11,11.723916666666666,131.06341666666665,142.78733333333332
371,2017-04-12,0.0,135.26629166666666,135.26629166666666
371,2017-04-13,32.391083333333334,105.37241666666667,137.7635
371,2017-04-14,50.69512499999999,81.00283333333333,131.6979583333333
371,2017-04-15,13.291375000000002,95.20429166666666,108.49566666666666
371,2017-04-16,4.625166666666667,110.38454166666666,115.00970833333334
371,2017-04-17,0.0,135.16908333333333,135.16908333333333
371,2017-04-18,0.42533333333333334,129.07929166666665,129.50462499999998
371,2017-04-19,0.0,127.82366666666667,127.82366666666667
371,2017-04-20,0.0,131.83391666666668,131.83391666666668
371,2017-04-21,0.0,118.02483333333333,118.02483333333333
371,2017-04-22,0.0,108.53591666666667,108.53591666666667
371,2017-04-23,0.0,111.40029166666666,111.40029166666666
371,2017-04-24,0.0,126.12625000000001,126.12625000000001
371,2017-04-25,0.0,121.363,121.363
371,2017-04-26,0.0,125.36333333333333,125.36333333333333
371,2017-04-27,0.0,123.67366666666668,123.67366666666668
371,2017-04-28,0.0,130.74949999999998,130.74949999999998
371,2017-04-29,0.0,144.61445833333332,144.61445833333332
371,2017-04-30,0.0,115.30370833333335,115.30370833333335
371,2017-05-01,0.0,129.60008333333334,129.60008333333334
371,2017-05-02,0.0,143.77450000000002,143.77450000000002
371,2017-05-03,0.0,126.11537499999999,126.11537499999999
371,2017-05-04,5.5958749999999995,113.622,119.21787499999999
371,2017-05-05,31.512958333333334,104.277625,135.79058333333333
371,2017-05-06,56.885250000000006,61.642875000000004,118.52812500000002
371,2017-05-07,36.15854166666667,79.86020833333333,116.01875000000001
371,2017-05-08,0.0,119.15362499999999,119.15362499999999
371,2017-05-09,0.0,120.60279166666668,120.60279166666668
371,2017-05-10,0.0,123.90729166666667,123.90729166666667
371,2017-05-11,19.255708333333335,99.92954166666668,119.18525000000001
371,2017-05-12,58.87745833333333,66.435,125.31245833333332
371,2017-05-13,58.87833333333333,59.694874999999996,118.57320833333333
371,2017-05-14,13.405958333333333,91.35683333333333,104.76279166666666
371,2017-05-15,0.0,109.08475,109.08475
371,2017-05-16,0.561875,118.32462500000001,118.88650000000001
371,2017-05-17,4.540333333333334,152.91295833333334,157.45329166666667
371,2017-05-18,4.550291666666666,194.8372916666667,199.38758333333334
371,2017-05-19,0.0,211.28641666666667,211.28641666666667
371,2017-05-20,0.0,128.17675,128.17675
371,2017-05-21,0.0,110.70879166666667,110.70879166666667
371,2017-05-22,0.0,121.55279166666666,121.55279166666666
371,2017-05-23,10.554416666666667,115.11500000000001,125.66941666666668
371,2017-05-24,4.15675,118.23966666666666,122.39641666666667
371,2017-05-25,39.03133333333333,90.20183333333334,129.23316666666668
371,2017-05-26,66.962,57.09804166666667,124.06004166666668
371,2017-05-27,31.007333333333335,60.71408333333333,91.72141666666667
371,2017-05-28,56.871916666666664,44.222833333333334,101.09475
371,2017-05-29,56.87499999999999,48.680625,105.55562499999999
371,2017-05-30,61.83620833333333,62.283125000000005,124.11933333333334
371,2017-05-31,61.82750000000001,72.01445833333334,133.84195833333334
371,2017-06-01,22.18558333333333,108.3825,130.56808333333333
371,2017-06-02,38.306416666666664,93.91658333333334,132.223
371,2017-06-03,61.81170833333332,59.053125,120.86483333333332
371,2017-06-04,40.46404166666667,77.78675,118.25079166666666
371,2017-06-05,58.29191666666666,78.60658333333333,136.89849999999998
371,2017-06-06,64.60566666666666,70.26350000000001,134.86916666666667
371,2017-06-07,65.43966666666665,71.89408333333334,137.33375
371,2017-06-08,65.551125,73.08633333333333,138.6374583333333
371,2017-06-09,65.50500000000001,72.22066666666667,137.72566666666668
371,2017-06-10,64.40929166666668,85.33445833333333,149.74375
371,2017-06-11,64.12304166666668,119.73312499999999,183.85616666666667
371,2017-06-12,65.750875,184.434125,250.185
371,2017-06-13,66.08304166666667,223.115625,289.19866666666667
371,2017-06-14,66.68091666666668,187.06233333333333,253.74325
371,2017-06-15,66.87725,128.377875,195.255125
371,2017-06-16,67.45291666666667,99.59804166666667,167.05095833333334
371,2017-06-17,66.41024999999999,78.81083333333333,145.22108333333333
371,2017-06-18,65.99891666666666,107.407375,173.40629166666668
371,2017-06-19,65.75916666666666,165.212875,230.97204166666666
371,2017-06-20,65.512625,156.024125,221.53674999999998
371,2017-06-21,66.76166666666668,149.03466666666665,215.79633333333334
371,2017-06-22,65.103375,143.43954166666666,208.54291666666666
371,2017-06-23,64.91004166666667,153.89804166666667,218.80808333333334
371,2017-06-24,63.10545833333333,122.97591666666666,186.08137499999998
371,2017-06-25,63.36445833333334,108.20100000000001,171.56545833333334
371,2017-06-26,64.94370833333333,117.40070833333334,182.3444166666667
371,2017-06-27,62.99474999999998,109.083125,172.07787499999998
371,2017-06-28,66.30616666666667,103.429875,169.73604166666667
371,2017-06-29,63.79958333333334,110.206,174.00558333333333
371,2017-06-30,47.98708333333334,136.78074999999998,184.76783333333333
371,2017-07-01,42.685166666666674,131.74620833333333,174.431375
371,2017-07-02,43.7635,128.08075,171.84425
371,2017-07-03,47.167833333333334,135.091375,182.25920833333333
371,2017-07-04,48.48304166666667,119.08033333333333,167.563375
371,2017-07-05,60.08249999999999,133.69908333333333,193.78158333333332
371,2017-07-06,59.24083333333331,112.72670833333332,171.96754166666665
371,2017-07-07,63.24095833333332,101.68933333333332,164.93029166666665
371,2017-07-08,56.63083333333333,107.04337500000001,163.67420833333335
371,2017-07-09,52.768541666666664,116.68966666666667,169.45820833333335
371,2017-07-10,66.35558333333334,136.74745833333333,203.10304166666668
371,2017-07-11,66.14662499999999,158.30058333333332,224.44720833333332
371,2017-07-12,65.99662500000001,182.30295833333332,248.29958333333332
371,2017-07-13,65.69845833333333,191.401375,257.0998333333333
371,2017-07-14,65.7735,122.70145833333333,188.47495833333335
371,2017-07-15,62.713666666666676,106.69733333333333,169.411
371,2017-07-16,32.11108333333333,139.117,171.22808333333333
371,2017-07-17,65.75616666666666,162.13629166666666,227.8924583333333
371,2017-07-18,65.67291666666668,177.78987500000002,243.4627916666667
371,2017-07-19,63.136541666666666,195.10462500000003,258.2411666666667
371,2017-07-20,57.90845833333333,201.9095,259.8179583333333
371,2017-07-21,49.852375,191.38441666666665,241.23679166666665
371,2017-07-22,36.433083333333336,181.83,218.26308333333336
371,2017-07-23,63.82183333333333,130.909,194.73083333333332
371,2017-07-24,66.50708333333334,128.61483333333334,195.12191666666666
371,2017-07-25,66.58329166666668,96.741875,163.3251666666667
371,2017-07-26,66.58741666666666,104.17325,170.76066666666665
371,2017-07-27,66.61520833333333,103.27016666666667,169.885375
371,2017-07-28,66.58104166666666,117.28491666666667,183.86595833333334
371,2017-07-29,54.954375,85.568,140.522375
371,2017-07-30,59.92645833333333,87.52320833333333,147.44966666666664
371,2017-07-31,66.45475,120.63545833333335,187.09020833333335
371,2017-08-01,65.43783333333332,153.915,219.3528333333333
371,2017-08-02,62.31733333333332,156.944625,219.26195833333333
371,2017-08-03,63.576083333333344,142.05991666666668,205.63600000000002
371,2017-08-04,62.36966666666667,142.50120833333332,204.87087499999998
371,2017-08-05,33.77791666666667,126.70895833333333,160.486875
371,2017-08-06,48.34108333333334,91.06395833333333,139.40504166666668
371,2017-08-07,56.28554166666668,97.62866666666667,153.91420833333336
371,2017-08-08,57.21729166666668,102.00349999999999,159.22079166666668
371,2017-08-09,57.21783333333332,115.86087500000001,173.07870833333334
371,2017-08-10,56.906416666666665,113.67845833333332,170.58487499999998
371,2017-08-11,56.68566666666666,109.619875,166.30554166666667
371,2017-08-12,55.77245833333333,91.51100000000001,147.28345833333333
371,2017-08-13,55.43970833333333,106.03683333333333,161.47654166666666
371,2017-08-14,56.164958333333345,129.08908333333332,185.25404166666667
371,2017-08-15,56.71933333333334,123.95625,180.67558333333335
371,2017-08-16,56.65145833333333,135.85970833333332,192.51116666666664